When you browse on this site, cookies collect data to enhance your experience and personalize the content and advertising you see.
Visit our Privacy Policy to learn more. By continuing to use the site, you agree to this use of cookies and data.

Hourly Weather Yurenevo

Today, 4 July, Saturday

Time Temperature Precipitation Wind Pressure Humidity
00:00 +16°C° 0.4 mm 0 mps 743 mmHg 81%
01:00 +16°C° 0.4 mm 0 mps 743 mmHg 87%
02:00 +18°C° 0 mm 1 mps 743 mmHg 88%
03:00 +16°C° 1.2 mm 1 mps 743 mmHg 91%
04:00 +16°C° 1.2 mm 1 mps 743 mmHg 95%
05:00 +16°C° 1.2 mm 1 mps 742 mmHg 98%
06:00 +18°C° 0.2 mm 1 mps 743 mmHg 95%
07:00 +19°C° 0.2 mm 1 mps 743 mmHg 93%
08:00 +21°C° 0 mm 1 mps 743 mmHg 89%
09:00 +22°C° 0.2 mm 1 mps 743 mmHg 79%
10:00 +24°C° 0.2 mm 1 mps 743 mmHg 69%
11:00 +25°C° 0.2 mm 1 mps 743 mmHg 59%
12:00 +26°C° 0 mm 1 mps 743 mmHg 55%
13:00 +26°C° 0 mm 1 mps 743 mmHg 52%
14:00 +26°C° 0 mm 2 mps 742 mmHg 48%
15:00 +26°C° 0 mm 1 mps 742 mmHg 52%
16:00 +26°C° 0 mm 1 mps 742 mmHg 56%
17:00 +25°C° 0 mm 1 mps 742 mmHg 59%
18:00 +24°C° 0 mm 1 mps 742 mmHg 65%
19:00 +22°C° 0 mm 1 mps 742 mmHg 71%
20:00 +21°C° 0 mm 1 mps 742 mmHg 76%
21:00 +20°C° 0 mm 1 mps 742 mmHg 79%
22:00 +19°C° 0 mm 1 mps 742 mmHg 82%
23:00 +16°C° 0 mm 1 mps 742 mmHg 85%

Tomorrow, 5 July, Sunday

Time Temperature Precipitation Wind Pressure Humidity
00:00 +16°C° 0 mm 1 mps 742 mmHg 86%
01:00 +15°C° 0 mm 1 mps 743 mmHg 87%
02:00 +15°C° 0 mm 1 mps 743 mmHg 87%
03:00 +15°C° 0 mm 1 mps 743 mmHg 85%
04:00 +16°C° 0 mm 1 mps 742 mmHg 83%
05:00 +16°C° 0 mm 1 mps 742 mmHg 81%
06:00 +18°C° 0 mm 2 mps 742 mmHg 73%
07:00 +20°C° 0 mm 2 mps 742 mmHg 66%
08:00 +22°C° 0 mm 3 mps 742 mmHg 58%
09:00 +24°C° 0 mm 3 mps 742 mmHg 54%
10:00 +25°C° 0 mm 3 mps 742 mmHg 51%
11:00 +26°C° 0 mm 3 mps 742 mmHg 47%
12:00 +27°C° 0 mm 4 mps 741 mmHg 47%
13:00 +27°C° 0 mm 4 mps 741 mmHg 46%
14:00 +28°C° 0 mm 4 mps 741 mmHg 45%
15:00 +26°C° 0.2 mm 3 mps 741 mmHg 57%
16:00 +24°C° 0.2 mm 3 mps 740 mmHg 69%
17:00 +21°C° 0.2 mm 2 mps 740 mmHg 81%
18:00 +20°C° 0.1 mm 2 mps 740 mmHg 85%
19:00 +20°C° 0.1 mm 1 mps 740 mmHg 88%
20:00 +19°C° 0.1 mm 1 mps 740 mmHg 91%
21:00 +18°C° 0 mm 2 mps 740 mmHg 93%
22:00 +17°C° 0 mm 2 mps 740 mmHg 94%
23:00 +17°C° 0 mm 2 mps 739 mmHg 95%

Day after tomorrow, 6 July, Monday

Time Temperature Precipitation Wind Pressure Humidity
00:00 +17°C° 0 mm 2 mps 739 mmHg 95%
01:00 +17°C° 0 mm 3 mps 739 mmHg 96%
02:00 +17°C° 0 mm 3 mps 739 mmHg 96%
03:00 +17°C° 0 mm 3 mps 739 mmHg 95%
04:00 +18°C° 0 mm 4 mps 738 mmHg 94%
05:00 +18°C° 0 mm 4 mps 738 mmHg 93%
06:00 +20°C° 0 mm 4 mps 738 mmHg 86%
07:00 +21°C° 0 mm 4 mps 738 mmHg 79%
08:00 +23°C° 0 mm 5 mps 739 mmHg 72%
09:00 +23°C° 0.2 mm 5 mps 739 mmHg 69%
10:00 +25°C° 0.2 mm 5 mps 739 mmHg 67%
11:00 +26°C° 0.2 mm 5 mps 739 mmHg 65%
12:00 +26°C° 0.3 mm 5 mps 739 mmHg 68%
13:00 +26°C° 0.3 mm 4 mps 738 mmHg 70%
14:00 +25°C° 0.3 mm 4 mps 738 mmHg 72%
15:00 +25°C° 0.2 mm 3 mps 738 mmHg 76%
16:00 +24°C° 0.2 mm 3 mps 738 mmHg 80%
17:00 +24°C° 0.2 mm 2 mps 738 mmHg 83%
18:00 +23°C° 0.1 mm 2 mps 739 mmHg 86%
19:00 +22°C° 0.1 mm 1 mps 739 mmHg 88%
20:00 +22°C° 0.1 mm 1 mps 739 mmHg 91%
21:00 +21°C° 0.1 mm 1 mps 739 mmHg 92%
22:00 +21°C° 0.1 mm 1 mps 739 mmHg 94%
23:00 +20°C° 0.1 mm 1 mps 739 mmHg 95%

7 July, Tuesday

Time Temperature Precipitation Wind Pressure Humidity
00:00 +20°C° 0.1 mm 1 mps 739 mmHg 96%
01:00 +20°C° 0.1 mm 1 mps 739 mmHg 96%
02:00 +20°C° 0.1 mm 1 mps 739 mmHg 97%
03:00 +20°C° 0 mm 1 mps 739 mmHg 97%
04:00 +20°C° 0 mm 1 mps 739 mmHg 96%
05:00 +20°C° 0 mm 1 mps 739 mmHg 96%
06:00 +20°C° 0.5 mm 1 mps 739 mmHg 96%
07:00 +21°C° 0.5 mm 1 mps 739 mmHg 97%
08:00 +21°C° 0.5 mm 1 mps 739 mmHg 97%
09:00 +20°C° 1.5 mm 2 mps 739 mmHg 96%
10:00 +19°C° 1.5 mm 2 mps 739 mmHg 96%
11:00 +19°C° 1.5 mm 3 mps 740 mmHg 96%
12:00 +20°C° 0.1 mm 3 mps 740 mmHg 87%
13:00 +21°C° 0.1 mm 2 mps 740 mmHg 79%
14:00 +23°C° 0.1 mm 2 mps 740 mmHg 71%
15:00 +23°C° 0 mm 1 mps 740 mmHg 69%
16:00 +24°C° 0 mm 1 mps 740 mmHg 67%
17:00 +24°C° 0 mm 1 mps 740 mmHg 65%
18:00 +23°C° 0 mm 1 mps 740 mmHg 72%
19:00 +21°C° 0 mm 1 mps 740 mmHg 79%
20:00 +20°C° 0 mm 1 mps 740 mmHg 86%
21:00 +19°C° 0 mm 1 mps 740 mmHg 88%
22:00 +18°C° 0 mm 1 mps 740 mmHg 90%
23:00 +16°C° 0 mm 1 mps 740 mmHg 93%

8 July, Wednesday

Time Temperature Precipitation Wind Pressure Humidity
00:00 +16°C° 0 mm 1 mps 739 mmHg 92%
01:00 +16°C° 0 mm 2 mps 739 mmHg 92%
02:00 +15°C° 0 mm 2 mps 739 mmHg 92%
03:00 +16°C° 0.9 mm 2 mps 739 mmHg 94%
04:00 +16°C° 0.9 mm 2 mps 738 mmHg 96%
05:00 +16°C° 0.9 mm 3 mps 738 mmHg 98%
06:00 +17°C° 2 mm 3 mps 737 mmHg 98%
07:00 +17°C° 2 mm 2 mps 737 mmHg 98%
08:00 +18°C° 2 mm 2 mps 736 mmHg 99%
09:00 +19°C° 0.9 mm 2 mps 736 mmHg 98%
10:00 +20°C° 0.9 mm 2 mps 736 mmHg 97%
11:00 +21°C° 0.9 mm 2 mps 736 mmHg 96%
12:00 +21°C° 0.7 mm 2 mps 736 mmHg 95%
13:00 +23°C° 0.7 mm 2 mps 736 mmHg 94%
14:00 +23°C° 0.7 mm 2 mps 736 mmHg 93%
15:00 +21°C° 1.4 mm 2 mps 736 mmHg 94%
16:00 +20°C° 1.4 mm 2 mps 736 mmHg 95%
17:00 +18°C° 1.4 mm 3 mps 736 mmHg 95%
18:00 +17°C° 0.1 mm 3 mps 736 mmHg 96%
19:00 +16°C° 0.1 mm 3 mps 737 mmHg 96%
20:00 +13°C° 0.1 mm 3 mps 737 mmHg 97%
21:00 +14°C° 0.4 mm 2 mps 737 mmHg 97%
22:00 +14°C° 0.4 mm 2 mps 737 mmHg 97%
23:00 +13°C° 0.4 mm 2 mps 737 mmHg 98%

9 July, Thursday

Time Temperature Precipitation Wind Pressure Humidity
00:00 +13°C° 0.6 mm 2 mps 737 mmHg 98%
01:00 +13°C° 0.6 mm 2 mps 736 mmHg 98%
02:00 +12°C° 0.6 mm 3 mps 736 mmHg 98%
03:00 +11°C° 0.6 mm 3 mps 736 mmHg 98%
04:00 +11°C° 0.6 mm 3 mps 736 mmHg 97%
05:00 +11°C° 0.6 mm 3 mps 736 mmHg 97%
06:00 +11°C° 0.2 mm 3 mps 736 mmHg 97%
07:00 +12°C° 0.2 mm 3 mps 737 mmHg 96%
08:00 +12°C° 0.2 mm 3 mps 737 mmHg 95%
09:00 +14°C° 0 mm 3 mps 738 mmHg 87%
10:00 +15°C° 0 mm 4 mps 738 mmHg 78%
11:00 +17°C° 0 mm 4 mps 739 mmHg 70%
12:00 +18°C° 0 mm 4 mps 739 mmHg 64%
13:00 +19°C° 0 mm 4 mps 739 mmHg 58%
14:00 +20°C° 0 mm 3 mps 740 mmHg 52%
15:00 +20°C° 0 mm 3 mps 740 mmHg 52%
16:00 +20°C° 0 mm 3 mps 740 mmHg 52%
17:00 +21°C° 0 mm 3 mps 740 mmHg 52%
18:00 +19°C° 0 mm 2 mps 741 mmHg 62%
19:00 +17°C° 0 mm 2 mps 741 mmHg 72%
20:00 +16°C° 0 mm 2 mps 741 mmHg 83%
21:00 +15°C° 0 mm 2 mps 742 mmHg 86%
22:00 +14°C° 0 mm 2 mps 742 mmHg 88%
23:00 +13°C° 0 mm 2 mps 742 mmHg 91%
Show more